User: anonymous   Login
Location: Oshawa
(43.9000°N, 78.8670°W)
Time: 13:42:58
(UTC-04:00)
Language:

PAYLOAD A - Orbit

View from above orbital plane
View from above orbital plane
View from above satellite
View from above satellite

Ground track
Ground track

The orbit data is extracted from the following two-line orbital elements,

1 27840U 03031A   17085.90105157 -.00000009 +00000-0 +10764-4 0  9999
2 27840 098.2036 086.9587 0098440 007.8608 352.4096 14.38877235721487
Epoch (UTC): 26 March 2017 21:37:30
Eccentricity: 0.0098440
inclination: 98.2036°
perigee height: 692 km
apogee height: 832 km
right ascension of ascending node: 86.9587°
argument of perigee: 7.8608°
revolutions per day: 14.38877235
mean anomaly at epoch: 352.4096°
orbit number at epoch: 72148

The dashed part of the orbit path shows where the satellite is in the earth's shadow,  

DLR